[[{"header":{"parameterUnit":"m.s-1","parameterCategory":1,"la1":30.2991,"la2":30.254,"lo1":-89.0895,"lo2":-89.0444,"dy":0.0017,"dx":0.0017,"nx":28,"ny":28,"refTime":"2024-07-13T03:00:00:Z","depth":0,"parameterNumber":2,"parameterNumberName":"U-component_of_WINDS"},"data":[0,0,0,0,0,0,0,0,0,0,0,0,0,0,0,0,0,0,0,0,0,0,0,0,0,0,0,0,0,0,0,0,0,0,0,0,0,0,0,0,0,0,0,0,0,0,0,0,0,0,0,0,0,0,0,0,0,0,1.9053,1.9055,0,1.9181,1.9183,1.9184,1.9212,1.9211,1.921,1.9209,1.9338,1.9342,1.9347,0,0,0,0,0,0,0,0,0,0,0,0,0,1.8828,1.8832,1.9053,1.9055,1.9056,1.9181,1.9183,1.9185,1.9212,1.9211,1.9209,1.9208,1.9337,1.9342,1.9347,0,0,0,0,0,0,0,0,0,0,0,0,0,1.8938,1.8833,1.9053,1.9085,1.9089,1.9181,1.9183,1.9185,1.9212,1.9211,1.9209,1.9208,1.9335,1.9341,1.9348,1.9416,0,0,1.9367,1.937,0,0,0,0,0,0,0,0,1.8931,1.8946,1.9079,1.9083,1.9088,1.9179,1.9151,1.9262,1.9212,1.9165,1.9209,1.9207,1.9286,1.9297,1.9324,1.9422,1.9427,1.9368,1.9372,1.9375,1.9377,0,0,0,0,0,0,0,1.8924,1.8941,1.9104,1.908,1.9086,1.9092,1.9106,1.9172,1.9232,1.9169,1.9172,1.9186,1.9288,1.9317,1.9327,1.9429,1.9368,1.9374,1.9378,1.938,1.9586,1.9588,0,0,0,0,0,0,1.8911,1.8934,1.91,1.9108,1.9005,1.9097,1.9113,1.9151,1.9231,1.9242,1.9187,1.9187,1.9307,1.9319,1.9332,1.9415,1.9375,1.9381,1.9384,1.9585,1.9587,1.9588,0,0,0,0,0,0,1.8906,1.8925,1.9095,1.9022,1.9043,1.9102,1.9145,1.9154,1.9183,1.9245,1.9256,1.9206,1.9306,1.9322,1.9394,1.942,1.9384,1.939,1.9583,1.9585,1.9588,1.9583,0,0,0,0,0,0,1.8899,1.8924,1.8951,1.9022,1.9047,1.9156,1.9147,1.9158,1.9195,1.9196,1.9266,1.9276,1.9306,1.9384,1.94,1.9428,1.9395,1.9581,1.9584,1.9587,1.9581,1.9584,1.9588,0,0,0,0,0,1.8891,1.8945,1.8953,1.8972,1.9083,1.9158,1.9172,1.9207,1.9197,1.9224,1.9263,1.9274,1.9414,1.9391,1.941,1.944,1.9579,1.9583,1.9587,1.9579,1.9584,1.9588,0,0,0,0,0,0,1.8876,1.8955,1.8964,1.9043,1.9093,1.9162,1.9198,1.9211,1.9265,1.9263,1.9303,1.9319,1.9388,1.9421,1.9394,1.9508,1.9496,1.9504,1.9484,1.9489,1.9492,1.9483,1.94,0,0,0,0,0,1.8881,1.8936,1.9002,1.9065,1.909,1.9139,1.9173,1.9195,1.9249,1.927,1.9315,1.9366,1.9421,1.9457,1.9512,1.9585,1.96,1.9615,1.9618,1.9621,1.9626,1.9665,1.9672,1.96,1.96,1.96,0,0,1.8894,1.8944,1.8976,1.9063,1.9105,1.9159,1.9157,1.9216,1.9256,1.9279,1.9349,1.9383,1.9442,1.9515,1.9549,1.9545,1.9649,1.9625,1.9627,1.9631,1.967,1.9676,1.9682,1.9603,1.9602,1.9602,0,0,1.8944,1.8988,1.9044,1.9085,1.9149,1.9181,1.9194,1.9261,1.9284,1.9355,1.9373,1.942,1.9516,1.9557,1.959,1.9652,1.9662,1.9668,1.9687,1.9724,1.973,1.9735,1.9755,1.9762,1.9674,1.9674,1.9674,0,1.8951,1.9035,1.9071,1.9128,1.9164,1.9188,1.9243,1.9282,1.9359,1.9383,1.9377,1.9495,1.9537,1.9618,1.9632,1.9659,1.9674,1.9661,1.9726,1.9732,1.9737,1.9757,1.9765,1.9674,1.9674,1.9674,1.9674,0,1.904,1.9097,1.9134,1.9208,1.9249,1.9305,1.9348,1.9384,1.9402,1.9434,1.9504,1.9555,1.9619,1.964,1.9658,1.9722,1.9717,1.9718,1.9707,1.9743,1.9763,1.9771,1.9674,1.9674,1.9674,1.9674,0,0,1.9085,1.9177,1.919,1.9222,1.9292,1.9337,1.9392,1.9455,1.9485,1.9536,1.9583,1.9661,1.9662,1.9699,1.9722,1.9755,1.9798,1.9751,1.9753,1.9757,1.9869,1.9868,1.9876,1.9805,1.9807,1.9808,1.9864,0,1.9143,1.9244,1.9277,1.9361,1.9413,1.9434,1.9482,1.9529,1.956,1.9608,1.9641,1.9696,1.9693,1.9715,1.9749,1.9786,1.9821,1.9782,1.9847,1.9849,1.9831,1.9887,1.9886,1.9936,1.9872,1.9873,1.9874,0,1.9224,1.9277,1.9366,1.9427,1.945,1.9493,1.9551,1.9597,1.965,1.967,1.971,1.9729,1.9786,1.9771,1.9849,1.9821,1.985,1.9871,1.9874,1.9881,1.9864,1.9894,1.9953,1.996,1.9887,1.9886,1.9885,0,1.9246,1.9339,1.9404,1.9432,1.9505,1.9534,1.9566,1.9617,1.9652,1.9702,1.9725,1.9781,1.9812,1.9854,1.9887,1.9874,1.9961,1.995,1.9978,1.9977,1.9995,1.9994,2.0059,2.0015,2.0014,2.0014,2.0014,0,1.9307,1.936,1.9415,1.9455,1.9514,1.955,1.9607,1.9639,1.9684,1.9729,1.9751,1.9792,1.9834,1.988,1.9906,1.9965,1.9979,1.9996,2.0002,1.9993,1.9991,2.0012,2.0009,2.0016,2.0016,2.0016,2.0015,0,1.9342,1.9381,1.9453,1.9515,1.9532,1.9573,1.9626,1.9664,1.9695,1.9751,1.9767,1.9815,1.987,1.9907,1.9978,1.9995,2.0059,2.0065,2.0041,2.0044,2.0069,2.0066,2.015,2.0162,2.011,2.0111,2.0111,0,1.9378,1.9419,1.9486,1.9518,1.9549,1.9601,1.9636,1.9672,1.9707,1.9769,1.9799,1.9855,1.9903,1.999,2.003,2.0083,2.009,2.0116,2.0098,2.0088,2.0089,2.0086,2.0089,2.0118,2.0119,2.0119,2.0119,0,1.9436,1.9453,1.9503,1.956,1.9601,1.9647,1.9693,1.9718,1.9761,1.9799,1.9856,1.9893,1.9964,2.002,2.0076,2.0107,2.012,2.0124,2.0133,2.0125,2.0109,2.0117,2.0047,2.0122,2.0122,2.0122,2.0122,2.0122,1.9472,1.9509,1.9561,1.9616,1.9654,1.9696,1.9734,1.9769,1.9818,1.9879,1.9897,1.9955,2.0004,2.0081,2.0113,2.0158,2.0155,2.0169,2.0172,2.0175,2.0174,2.0102,2.0169,2.0169,2.0168,2.0168,2.0168,0,1.9531,1.9565,1.9615,1.9678,1.972,1.9729,1.9779,1.9814,1.9865,1.991,1.9956,2.0019,2.0072,2.0116,2.017,2.0198,2.0205,2.021,2.0208,2.0215,2.0174,2.016,2.0204,2.0204,2.0204,2.0204,2.0204,2.0204,1.9566,1.9628,1.965,1.973,1.9764,1.9822,1.985,1.9888,1.9924,1.9994,2.0038,2.0066,2.011,2.0167,2.0215,2.0226,2.0244,2.0249,2.0261,2.0222,2.0218,2.0214,2.0201,2.0253,2.0253,2.0298,2.0298,2.0299]},{"header":{"parameterUnit":"m.s-1","parameterCategory":1,"la1":30.2991,"la2":30.254,"lo1":-89.0895,"lo2":-89.0444,"dy":0.0017,"dx":0.0017,"nx":28,"ny":28,"refTime":"2024-07-13T03:00:00:Z","depth":0,"parameterNumber":3,"parameterNumberName":"V-component_of_WINDS"},"data":[0,0,0,0,0,0,0,0,0,0,0,0,0,0,0,0,0,0,0,0,0,0,0,0,0,0,0,0,0,0,0,0,0,0,0,0,0,0,0,0,0,0,0,0,0,0,0,0,0,0,0,0,0,0,0,0,0,0,4.0237,4.0238,0,4.0291,4.0291,4.0292,4.0302,4.0302,4.0301,4.0301,4.0351,4.0353,4.0354,0,0,0,0,0,0,0,0,0,0,0,0,0,4.0135,4.0137,4.0237,4.0238,4.0238,4.0291,4.0291,4.0292,4.0302,4.0302,4.0301,4.0301,4.035,4.0352,4.0355,0,0,0,0,0,0,0,0,0,0,0,0,0,4.0183,4.0138,4.0237,4.025,4.0251,4.029,4.0291,4.0292,4.0302,4.0302,4.0301,4.03,4.035,4.0352,4.0355,4.0383,0,0,4.0363,4.0364,0,0,0,0,0,0,0,0,4.018,4.0187,4.0247,4.0249,4.0251,4.0289,4.0274,4.0323,4.0302,4.0283,4.0301,4.03,4.0331,4.0335,4.0346,4.0386,4.0388,4.0363,4.0365,4.0366,4.0366,0,0,0,0,0,0,0,4.0177,4.0185,4.0258,4.0248,4.025,4.025,4.0256,4.0283,4.0309,4.0284,4.0285,4.0292,4.0331,4.0343,4.0347,4.0389,4.0363,4.0365,4.0367,4.0368,4.045,4.0451,0,0,0,0,0,0,4.0172,4.0182,4.0256,4.026,4.0213,4.0253,4.0259,4.0277,4.0309,4.0313,4.0292,4.0292,4.0339,4.0344,4.0349,4.0382,4.0366,4.0368,4.037,4.045,4.045,4.0451,0,0,0,0,0,0,4.017,4.0179,4.0254,4.0221,4.0231,4.0255,4.0275,4.0279,4.0291,4.0315,4.0319,4.03,4.0339,4.0345,4.0374,4.0384,4.0369,4.0372,4.0449,4.045,4.0451,4.0451,0,0,0,0,0,0,4.0167,4.0178,4.0191,4.0221,4.0232,4.0281,4.0276,4.028,4.0296,4.0296,4.0324,4.0328,4.0339,4.037,4.0377,4.0388,4.0374,4.0448,4.0449,4.045,4.045,4.0452,4.0453,0,0,0,0,0,4.0164,4.0189,4.0192,4.0201,4.025,4.0282,4.0288,4.0302,4.0297,4.0309,4.0323,4.0327,4.0382,4.0373,4.0381,4.0392,4.0447,4.0449,4.045,4.0449,4.0451,4.0453,0,0,0,0,0,0,4.0159,4.0194,4.0197,4.0234,4.0255,4.0283,4.0299,4.0304,4.0326,4.0325,4.0339,4.0345,4.0373,4.0385,4.0375,4.042,4.0414,4.0417,4.0411,4.0413,4.0414,4.0411,4.0376,0,0,0,0,0,4.0163,4.0188,4.0215,4.0245,4.0255,4.0275,4.0289,4.0298,4.032,4.0328,4.0346,4.0365,4.0386,4.04,4.0422,4.0451,4.0456,4.0463,4.0464,4.0465,4.0468,4.0481,4.0484,4.0456,4.0456,4.0456,0,0,4.017,4.0192,4.0207,4.0244,4.0262,4.0284,4.0283,4.0308,4.0324,4.0332,4.036,4.0373,4.0395,4.0424,4.0437,4.0435,4.0476,4.0467,4.0468,4.047,4.0483,4.0486,4.0488,4.0457,4.0456,4.0456,0,0,4.0195,4.0215,4.024,4.0257,4.0283,4.0296,4.0301,4.0328,4.0337,4.0366,4.0371,4.0389,4.0427,4.0442,4.0454,4.0479,4.0482,4.0486,4.0494,4.0507,4.0509,4.0511,4.0518,4.0521,4.0488,4.0488,4.0488,0,4.0201,4.0237,4.0252,4.0276,4.0291,4.0299,4.0323,4.0338,4.0369,4.0378,4.0375,4.042,4.0436,4.0466,4.0472,4.0483,4.0488,4.0483,4.0508,4.051,4.0512,4.0519,4.0522,4.0488,4.0488,4.0488,4.0488,0,4.0241,4.0266,4.0283,4.0313,4.0329,4.0353,4.0369,4.0383,4.0389,4.0401,4.0427,4.0446,4.047,4.0478,4.0484,4.0508,4.0506,4.0505,4.05,4.0515,4.0521,4.0524,4.0488,4.0488,4.0488,4.0488,0,0,4.0268,4.0303,4.0309,4.0321,4.0349,4.0367,4.0389,4.0413,4.0424,4.0444,4.0461,4.049,4.0489,4.0503,4.051,4.0522,4.0538,4.0519,4.052,4.0521,4.0563,4.0563,4.0566,4.0539,4.054,4.0541,4.056,0,4.0295,4.0337,4.0349,4.0383,4.0404,4.041,4.0428,4.0445,4.0456,4.0473,4.0484,4.0504,4.0502,4.051,4.0522,4.0534,4.0546,4.0532,4.0554,4.0554,4.0548,4.057,4.0571,4.0589,4.0563,4.0564,4.0564,0,4.0333,4.0354,4.039,4.0411,4.042,4.0438,4.0458,4.0476,4.0494,4.05,4.0514,4.0519,4.0539,4.0532,4.0559,4.0549,4.0558,4.0565,4.0565,4.0568,4.056,4.0572,4.0595,4.0597,4.0569,4.0568,4.0568,0,4.0347,4.0383,4.0409,4.0419,4.0445,4.0456,4.0467,4.0485,4.0497,4.0514,4.0522,4.0541,4.0551,4.0565,4.0574,4.0569,4.0599,4.0593,4.0603,4.0603,4.061,4.0609,4.0634,4.0616,4.0616,4.0616,4.0616,0,4.0376,4.0397,4.0415,4.0431,4.0453,4.0465,4.0486,4.0497,4.0512,4.0528,4.0533,4.0548,4.056,4.0575,4.0582,4.0601,4.0606,4.061,4.0612,4.061,4.0609,4.0616,4.0614,4.0617,4.0617,4.0616,4.0616,0,4.0395,4.0408,4.0436,4.0457,4.0463,4.0479,4.0496,4.0509,4.0519,4.0539,4.0544,4.0558,4.0576,4.0586,4.0609,4.0613,4.0634,4.0636,4.0629,4.0629,4.0638,4.0637,4.0668,4.0672,4.0652,4.0652,4.0652,0,4.0413,4.0429,4.0451,4.0463,4.0474,4.0492,4.0504,4.0515,4.0527,4.0546,4.0557,4.0575,4.059,4.0618,4.0629,4.0646,4.0647,4.0656,4.0649,4.0646,4.0645,4.0644,4.0645,4.0658,4.0658,4.0658,4.0658,0,4.0442,4.0446,4.0465,4.0483,4.0498,4.0513,4.0528,4.0537,4.0549,4.0562,4.058,4.0592,4.0614,4.0631,4.0648,4.0656,4.0658,4.066,4.0663,4.0661,4.0655,4.0657,4.0631,4.0659,4.0659,4.0659,4.0659,4.0659,4.046,4.0474,4.0491,4.0509,4.0521,4.0534,4.0548,4.0558,4.0574,4.0593,4.0597,4.0616,4.063,4.0653,4.0661,4.0675,4.0673,4.0678,4.0679,4.0679,4.0679,4.0653,4.0678,4.0678,4.0678,4.0678,4.0678,0,4.0488,4.0498,4.0515,4.0536,4.0549,4.055,4.0566,4.0577,4.0594,4.0607,4.0621,4.064,4.0656,4.0667,4.0683,4.0691,4.0692,4.0694,4.0694,4.0695,4.068,4.0676,4.0693,4.0693,4.0693,4.0693,4.0693,4.0693,4.0504,4.0526,4.0532,4.0559,4.0569,4.0587,4.0596,4.0607,4.0617,4.0639,4.0652,4.0659,4.0671,4.0686,4.07,4.0703,4.0707,4.071,4.0712,4.0698,4.0697,4.0695,4.0691,4.0711,4.0711,4.0726,4.0726,4.0726]}]]